Change the Weather History Date:

Sunday, May 12, 2013

  Actual Average Record
Temperature  
Mean Temperature 66 °F -  
Max Temperature 75 °F 76 °F 91 °F (2000)
Min Temperature 57 °F 54 °F 44 °F (2006)
Cooling Degree Days 1    
Growing Degree Days 16 (Base 50)    
Moisture  
Dew Point 48 °F    
Average Humidity 54    
Maximum Humidity 88    
Minimum Humidity 29    
Precipitation  
Precipitation 0.06 in - - ()
Sea Level Pressure  
Sea Level Pressure 29.91 in    
Wind  
Wind Speed 4 mph (NW)    
Max Wind Speed 10 mph    
Max Gust Speed 18 mph    
Visibility 10 miles    
Events      
Averages and records for this station are not official NWS values.
T = Trace of Precipitation, MM = Missing Value Source: NWS Daily Summary

Daily Weather History Graph

Daily Weather History Graph

Search for Another Location

Airport or City:

Trip Planner

Search our weather history database for the weather conditions in past years. The results will help you decide how hot, cold, wet, or windy it might be!

Date:

Astronomy

May. 12, 2013 Rise Set
Actual Time 6:15 AM EDT 8:12 PM EDT
Civil Twilight 5:47 AM EDT 8:40 PM EDT
Nautical Twilight 5:13 AM EDT 9:14 PM EDT
Astronomical Twilight 4:37 AM EDT 9:51 PM EDT
Moon 8:10 AM EDT (5/12) 10:37 PM EDT (5/12)
Length of Visible Light 14h 52m
Length of Day
13h 56m
Waxing Crescent, 6% of the Moon is Illuminated
May 12
Waxing Crescent
May 18
First Quarter
May 25
Full
May 31
Last Quarter
Jun 8
New

Hourly Weather History & Observations

Time (EDT) Temp. Dew Point Humidity Pressure Visibility Wind Dir Wind Speed Gust Speed Precip Events Conditions
12:15 AM 69.8 °F 57.2 °F 64% 29.84 in 10.0 mi West 4.6 mph - N/A   Partly Cloudy
12:35 AM 69.8 °F 57.2 °F 64% 29.84 in 10.0 mi WSW 6.9 mph - N/A   Partly Cloudy
12:55 AM 69.8 °F 57.2 °F 64% 29.84 in 10.0 mi WNW 4.6 mph - N/A   Mostly Cloudy
1:15 AM 64.4 °F 59.0 °F 83% 29.85 in 10.0 mi Calm Calm - 0.05 in   Overcast
1:35 AM 64.4 °F 59.0 °F 83% 29.84 in 10.0 mi West 4.6 mph - 0.05 in   Mostly Cloudy
1:55 AM 64.4 °F 59.0 °F 83% 29.84 in 10.0 mi WSW 3.5 mph - 0.05 in   Partly Cloudy
2:15 AM 64.4 °F 59.0 °F 83% 29.84 in 10.0 mi WSW 3.5 mph - N/A   Scattered Clouds
2:35 AM 64.4 °F 59.0 °F 83% 29.84 in 10.0 mi Calm Calm - N/A   Overcast
2:55 AM 64.4 °F 59.0 °F 83% 29.84 in 10.0 mi WSW 3.5 mph - N/A   Overcast
3:15 AM 64.4 °F 59.0 °F 83% 29.84 in 10.0 mi Calm Calm - 0.01 in   Overcast
3:35 AM 62.6 °F 59.0 °F 88% 29.84 in 10.0 mi Calm Calm - 0.01 in   Overcast
3:55 AM 62.6 °F 59.0 °F 88% 29.83 in 10.0 mi Calm Calm - 0.01 in   Scattered Clouds
4:15 AM 62.6 °F 57.2 °F 82% 29.83 in 10.0 mi Calm Calm - N/A   Clear
4:35 AM 62.6 °F 57.2 °F 82% 29.83 in 10.0 mi Calm Calm - N/A   Mostly Cloudy
4:55 AM 62.6 °F 57.2 °F 82% 29.83 in 10.0 mi Calm Calm - N/A   Scattered Clouds
5:35 AM 62.6 °F 57.2 °F 82% 29.84 in 10.0 mi NNW 5.8 mph - N/A   Scattered Clouds
5:55 AM 62.6 °F 57.2 °F 82% 29.84 in 10.0 mi Calm Calm - N/A   Scattered Clouds
6:15 AM 62.6 °F 57.2 °F 82% 29.86 in 10.0 mi Calm Calm - N/A   Mostly Cloudy
6:35 AM 62.6 °F 55.4 °F 77% 29.87 in 10.0 mi NNW 3.5 mph - N/A   Overcast
6:55 AM 60.8 °F 55.4 °F 82% 29.88 in 10.0 mi Calm Calm - N/A   Overcast
7:15 AM 60.8 °F 55.4 °F 82% 29.88 in 10.0 mi North 3.5 mph - N/A   Overcast
7:35 AM 60.8 °F 53.6 °F 77% 29.89 in 10.0 mi WNW 3.5 mph - N/A   Overcast
7:55 AM 60.8 °F 55.4 °F 82% 29.89 in 10.0 mi NNW 5.8 mph - N/A   Overcast
8:15 AM 60.8 °F 51.8 °F 72% 29.90 in 10.0 mi NNW 3.5 mph - N/A   Mostly Cloudy
8:35 AM 62.6 °F 51.8 °F 68% 29.91 in 10.0 mi NNW 5.8 mph - N/A   Mostly Cloudy
8:55 AM 62.6 °F 50.0 °F 63% 29.91 in 10.0 mi North 4.6 mph - N/A   Mostly Cloudy
9:15 AM 64.4 °F 48.2 °F 56% 29.92 in 10.0 mi NNW 6.9 mph - N/A   Clear
9:35 AM 64.4 °F 48.2 °F 56% 29.92 in 10.0 mi North 5.8 mph - N/A   Clear
9:55 AM 66.2 °F 48.2 °F 52% 29.92 in 10.0 mi North 5.8 mph - N/A   Clear
10:15 AM 66.2 °F 48.2 °F 52% 29.92 in 10.0 mi NW 5.8 mph - N/A   Clear
10:35 AM 66.2 °F 46.4 °F 49% 29.92 in 10.0 mi NNW 5.8 mph - N/A   Clear
10:55 AM 68.0 °F 46.4 °F 46% 29.92 in 10.0 mi WNW 4.6 mph - N/A   Clear
11:15 AM 69.8 °F 46.4 °F 43% 29.91 in 10.0 mi North 4.6 mph - N/A   Clear
11:35 AM 69.8 °F 48.2 °F 46% 29.91 in 10.0 mi Calm Calm - N/A   Clear
11:55 AM 69.8 °F 46.4 °F 43% 29.92 in 10.0 mi WNW 4.6 mph - N/A   Clear
12:15 PM 69.8 °F 46.4 °F 43% 29.91 in 10.0 mi NW 10.4 mph - N/A   Partly Cloudy
12:35 PM 71.6 °F 46.4 °F 41% 29.91 in 10.0 mi West 9.2 mph - N/A   Partly Cloudy
12:55 PM 71.6 °F 48.2 °F 43% 29.91 in 10.0 mi North 8.1 mph - N/A   Scattered Clouds
1:15 PM 71.6 °F 46.4 °F 41% 29.91 in 10.0 mi WNW 3.5 mph - N/A   Mostly Cloudy
1:35 PM 73.4 °F 48.2 °F 41% 29.91 in 10.0 mi WNW 5.8 mph 16.1 mph N/A   Mostly Cloudy
1:55 PM 71.6 °F 46.4 °F 41% 29.91 in 10.0 mi North 4.6 mph - N/A   Mostly Cloudy
2:15 PM 71.6 °F 46.4 °F 41% 29.90 in 10.0 mi WNW 3.5 mph - N/A   Mostly Cloudy
2:35 PM 73.4 °F 46.4 °F 38% 29.90 in 10.0 mi West 8.1 mph 17.3 mph N/A   Scattered Clouds
2:55 PM 75.2 °F 46.4 °F 36% 29.90 in 10.0 mi West 6.9 mph - N/A   Partly Cloudy
3:15 PM 73.4 °F 44.6 °F 36% 29.90 in 10.0 mi WNW 5.8 mph - N/A   Mostly Cloudy
3:35 PM 75.2 °F 44.6 °F 34% 29.90 in 10.0 mi WNW 6.9 mph - N/A   Scattered Clouds
3:55 PM 75.2 °F 44.6 °F 34% 29.88 in 10.0 mi NW 9.2 mph 16.1 mph N/A   Scattered Clouds
4:15 PM 73.4 °F 42.8 °F 33% 29.89 in 10.0 mi NW 5.8 mph - N/A   Scattered Clouds
4:35 PM 75.2 °F 42.8 °F 31% 29.88 in 10.0 mi NW 10.4 mph - N/A   Scattered Clouds
4:55 PM 75.2 °F 41.0 °F 29% 29.89 in 10.0 mi NNW 5.8 mph - N/A   Partly Cloudy
5:15 PM 75.2 °F 41.0 °F 29% 29.89 in 10.0 mi WNW 8.1 mph 18.4 mph N/A   Mostly Cloudy
5:35 PM 73.4 °F 41.0 °F 31% 29.90 in 10.0 mi NW 5.8 mph - N/A   Partly Cloudy
5:55 PM 73.4 °F 42.8 °F 33% 29.90 in 10.0 mi NW 5.8 mph - N/A   Mostly Cloudy
6:15 PM 71.6 °F 44.6 °F 38% 29.91 in 10.0 mi Calm Calm - N/A   Overcast
6:35 PM 71.6 °F 44.6 °F 38% 29.92 in 10.0 mi North 3.5 mph - N/A   Overcast
6:55 PM 71.6 °F 42.8 °F 35% 29.92 in 10.0 mi North 3.5 mph - N/A   Overcast
7:15 PM 69.8 °F 42.8 °F 38% 29.93 in 10.0 mi North 3.5 mph - N/A   Overcast
7:35 PM 69.8 °F 41.0 °F 35% 29.94 in 10.0 mi North 5.8 mph - N/A   Scattered Clouds
7:55 PM 66.2 °F 37.4 °F 35% 29.95 in 10.0 mi Calm Calm - N/A   Clear
8:15 PM 64.4 °F 37.4 °F 37% 29.96 in 10.0 mi Calm Calm - N/A   Clear
8:35 PM 64.4 °F 35.6 °F 34% 29.97 in 10.0 mi Calm Calm - N/A   Clear
8:55 PM 62.6 °F 35.6 °F 37% 29.97 in 10.0 mi Calm Calm - N/A   Partly Cloudy
9:15 PM 62.6 °F 35.6 °F 37% 29.98 in 10.0 mi Calm Calm - N/A   Clear
9:35 PM 60.8 °F 35.6 °F 39% 29.99 in 10.0 mi NNE 3.5 mph - N/A   Scattered Clouds
9:55 PM 60.8 °F 35.6 °F 39% 30.01 in 10.0 mi Calm Calm - N/A   Scattered Clouds
10:15 PM 60.8 °F 35.6 °F 39% 30.01 in 10.0 mi NNE 4.6 mph - N/A   Scattered Clouds
10:35 PM 60.8 °F 33.8 °F 36% 30.02 in 10.0 mi NNE 3.5 mph - N/A   Mostly Cloudy
10:55 PM 59.0 °F 33.8 °F 39% 30.02 in 10.0 mi Calm Calm - N/A   Mostly Cloudy
11:15 PM 59.0 °F 33.8 °F 39% 30.02 in 10.0 mi NNE 3.5 mph - N/A   Overcast
11:35 PM 57.2 °F 33.8 °F 41% 30.02 in 10.0 mi NNE 3.5 mph - N/A   Mostly Cloudy
11:55 PM 57.2 °F 33.8 °F 41% 30.04 in 10.0 mi Calm Calm - N/A   Mostly Cloudy